sat.trackr.live / text

‹ back to catalog

STARLINK-5700

NORAD 55607 · 2023-020AQ

PAYLOAD ACTIVE UNKNOWN

§ Identity

Operator
Country
US
Launch date
2023-02-12
Launch site
AFETR
Launch vehicle
Mass (kg)
RCS (m²)

Purposes: comms

External: N2YO · Heavens-Above · Gunter

§ Orbital elements

Epoch: 2026-09-19T22:11:33.693792Z

Period
94.27 min
Inclination
43.0051°
Eccentricity
0.0001621
Mean motion
15.27575931 rev/d
Perigee alt
481.9 km
Apogee alt
484.2 km
Semi-major
6,861.2 km
B*
-3.5186e-6
RAAN
337.4163°
Arg perigee
288.2511°
Mean anomaly
71.8164°
Rev number
19,874

§ Raw data

STARLINK-57001 55607U 23020AQ  26262.92469553 -.00000359  00000+0 -35186-5 0  99972 55607  43.0051 337.4163 0001621 288.2511  71.8164 15.27575931198743

JSON: /api/v1/satellites/55607 · /tle

For live sub-satellite position, see the globe view (requires WebGL).

§ Visibility from observer

Set your observer location to see the next 7 days of passes ≥ 10°. The values pass through the URL so the page stays shareable.

No JS? Fill the form by hand. The geolocation button needs JavaScript.